IRIDIUM 155

Last updated on Tue Sep 22 2026 00:03:21 GMT+0000 (Coordinated Universal Time)

1 43573U 18061E 26264.60095409 .00000031 00000+0 41193-5 0 9997 2 43573 86.4011 16.3506 0002113 92.3770 267.7668 14.34217827427172
UTC large
Height (km)
Speed (km/s)
/
Latitude / Longitude
Inclination (degrees)
Orbital Period (minutes)
Azimuth
Elevation
Range (km)
Doppler Factor

Next 0 passes for location: London (51.5072 / 0.1276)

No passes found over London.
IRIDIUM 155